Disclaimer

Please do not use the information listed here in-flight or in-navigation, as they are not provided to us by the airports but are provided by volunteers, so they might be outdated.

Search


Regions


Airport information page

No radio frequency information is available.

Airport informations:
Latitude: 18° 07' 55.81" N
Longitude: 100° 09' 52.79" E
Elevation: 538 feet - 164 meters
Operating hours: From sunrise to sunset (SR-SS)
Operating agency: Civil government, landing fees and diplomatic clearance may be required
Timezone: UTC+7
Fuel: N/A

Runway information:
01/19 - 4921 x 98 feet< - >1500 x 30 meters

Recent METARs:
VTCP 171000Z VRB02KT 9999 FEW025 31/22 Q1012 NOSIG
VTCP 171000Z VRB02KT 9999 FEW025 31/22 Q1012 NOSIG
VTCP 171000Z VRB02KT 9999 FEW025 31/22 Q1012 NOSIG

Airport on the map: